Location: Unspecified
(28.1530°N, 80.6520°W)
Time: 08:47:50
(UTC+01:00)

Hubble Space Telescope - Visible Passes

Search period start: 25 November 2017 00:00
Search period end: 05 December 2017 00:00
Orbit: 537 x 541 km, 28.5° (Epoch: 24 November)

Date Brightness Start Highest point End Pass type
(mag) Time Alt. Az. Time Alt. Az. Time Alt. Az.
25 Nov 1.2 10:57:36 59° SE 10:57:36 59° SE 11:01:04 10° ESE visible
26 Nov 1.9 10:48:02 40° SE 10:48:02 40° SE 10:50:49 10° ESE visible
26 Nov 2.4 12:24:22 10° WSW 12:27:40 23° SSW 12:30:59 10° SSE visible
27 Nov 2.7 10:38:28 27° SE 10:38:28 27° SE 10:40:33 10° ESE visible
27 Nov 2.7 12:14:30 10° WSW 12:17:23 18° SSW 12:20:17 10° SSE visible
28 Nov 3.3 10:28:57 19° SE 10:28:57 19° SE 10:30:13 10° SE visible
28 Nov 3.0 12:04:52 10° WSW 12:07:05 14° SSW 12:09:20 10° S visible
29 Nov 3.8 10:19:26 12° SE 10:19:26 12° SE 10:19:51 10° SE visible
29 Nov 3.2 11:55:50 10° SW 11:56:47 11° SSW 11:57:44 10° SSW visible
04 Dec 3.0 00:57:28 10° S 00:59:30 13° SSE 00:59:37 13° SSE visible
